N6OPV Weather Reports


time (UTC)temp
C
wind
direction
speed
KPH
gust
KPH
rain 1hr
cm
rain 24hr
cm
rain mn
cm
humidity
%
barometer
mb
20260503211959 18 259 4.8 16.1 0.00 0.00 0.00 42 1012.6
20260503211458 19 253 3.2 16.1 0.00 0.00 0.00 41 1012.6
20260503210959 18 176 1.6 9.7 0.00 0.00 0.00 43 1012.5
20260503210459 18 282 3.2 12.9 0.00 0.00 0.00 44 1012.6
20260503205459 18 300 4.8 11.3 0.00 0.00 0.00 43 1012.9
20260503204959 18 314 4.8 12.9 0.00 0.00 0.00 42 1012.9
20260503204459 18 247 4.8 12.9 0.00 0.00 0.00 42 1012.8
20260503204001 18 345 4.8 14.5 0.00 0.00 0.00 43 1012.9
20260503203458 19 288 4.8 14.5 0.00 0.00 0.00 41 1013.0
20260503202958 19 255 4.8 14.5 0.00 0.00 0.00 42 1012.9
20260503201458 19 250 3.2 11.3 0.00 0.00 0.00 41 1013.0
20260503201000 19 250 3.2 11.3 0.00 0.00 0.00 42 1012.8
20260503200458 18 315 3.2 11.3 0.00 0.00 0.00 44 1012.8
20260503195458 18 334 3.2 6.4 0.00 0.00 0.00 43 1012.9
20260503194958 18 224 1.6 8.0 0.00 0.00 0.00 43 1013.0
20260503194500 18 77 1.6 8.0 0.00 0.00 0.00 43 1013.2
20260503193458 17 114 3.2 9.7 0.00 0.00 0.00 43 1013.1
20260503192958 18 295 1.6 9.7 0.00 0.00 0.00 43 1013.2
20260503192459 18 250 1.6 8.0 0.00 0.00 0.00 43 1013.1
20260503191959 18 261 0.0 3.2 0.00 0.00 0.00 45 1013.2
20260503191459 17 252 1.6 6.4 0.00 0.00 0.00 45 1013.2
20260503190958 17 252 1.6 8.0 0.00 0.00 0.00 44 1013.3
20260503185959 17 222 1.6 11.3 0.00 0.00 0.00 46 1013.4
20260503185458 17 179 1.6 11.3 0.00 0.00 0.00 46 1013.4
20260503184959 17 114 1.6 8.0 0.00 0.00 0.00 48 1013.5
20260503184459 17 250 1.6 8.0 0.00 0.00 0.00 49 1013.4
20260503183959 17 214 1.6 8.0 0.00 0.00 0.00 49 1013.5
20260503183459 16 327 1.6 4.8 0.00 0.00 0.00 53 1013.5
20260503182958 16 84 1.6 6.4 0.00 0.00 0.00 53 1013.7
20260503182459 16 333 1.6 6.4 0.00 0.00 0.00 53 1013.7
20260503181958 16 217 1.6 8.0 0.00 0.00 0.00 55 1013.7
20260503180959 16 225 1.6 6.4 0.00 0.00 0.00 55 1013.8
20260503180000 15 286 1.6 6.4 0.00 0.00 0.00 56 1013.8
20260503175459 15 309 3.2 6.4 0.00 0.00 0.00 58 1013.8
20260503174958 15 325 1.6 11.3 0.00 0.00 0.00 57 1013.7
20260503174500 15 62 1.6 8.0 0.00 0.00 0.00 59 1013.7
20260503174000 15 329 1.6 6.4 0.00 0.00 0.00 60 1013.8
20260503173459 15 313 1.6 6.4 0.00 0.00 0.00 60 1013.7
20260503172958 15 100 1.6 6.4 0.00 0.00 0.00 61 1013.8
20260503172459 15 314 3.2 6.4 0.00 0.00 0.00 61 1013.8
20260503171958 15 300 3.2 12.9 0.00 0.00 0.00 62 1013.8
20260503171458 14 14 1.6 12.9 0.00 0.00 0.00 63 1013.8
20260503170500 14 286 1.6 6.4 0.00 0.00 0.00 65 1013.7
20260503150958 12 243 0.0 4.8 0.00 0.00 0.00 68 1012.9
20260503150458 12 204 0.0 3.2 0.00 0.00 0.00 69 1013.0
20260503131000 11 272 0.0 0.0 0.00 0.00 0.00 68 1011.9
20260503110459 11 271 0.0 0.0 0.00 0.00 0.00 70 1011.6
20260503090459 12 238 0.0 1.6 0.00 0.00 0.00 71 1011.7
20260503081500 12 125 0.0 1.6 0.00 0.00 0.00 71 1012.1
20260503080459 12 210 0.0 1.6 0.00 0.00 0.00 72 1012.3
20260503071959 12 301 0.0 1.6 0.00 0.00 0.00 73 1012.1
20260503071500 12 301 0.0 1.6 0.00 0.00 0.00 73 1012.1
20260503071000 12 302 0.0 1.6 0.00 0.00 0.00 73 1012.1
20260503070459 12 293 0.0 1.6 0.00 0.00 0.00 73 1012.1
20260503055000 12 262 0.0 3.2 0.00 0.00 0.00 72 1011.5
20260503054500 12 335 0.0 4.8 0.00 0.00 0.00 71 1011.6
20260503054000 12 248 0.0 4.8 0.00 0.00 0.00 71 1011.6
20260503053501 12 210 0.0 3.2 0.00 0.00 0.00 70 1011.6
20260503052959 12 264 0.0 1.6 0.00 0.00 0.00 70 1011.5
20260503052501 12 300 1.6 3.2 0.00 0.00 0.00 70 1011.4
20260503052000 12 359 1.6 6.4 0.00 0.00 0.00 70 1011.4
20260503051501 12 354 1.6 6.4 0.00 0.00 0.00 70 1011.5
20260503051000 12 25 1.6 9.7 0.00 0.00 0.00 70 1011.4
20260503050459 12 316 1.6 8.0 0.00 0.00 0.00 70 1011.4
20260503045959 12 330 1.6 4.8 0.00 0.00 0.00 70 1011.4
20260503045459 12 323 0.0 4.8 0.00 0.00 0.00 70 1011.4
20260503044958 12 321 0.0 4.8 0.00 0.00 0.00 70 1011.4
20260503044458 12 322 0.0 4.8 0.00 0.00 0.00 70 1011.4
20260503044000 12 281 0.0 4.8 0.00 0.00 0.00 70 1011.3
20260503043459 12 350 0.0 3.2 0.00 0.00 0.00 70 1011.3
20260503042959 12 266 1.6 3.2 0.00 0.00 0.00 70 1011.3
20260503042500 12 4 1.6 6.4 0.00 0.00 0.00 70 1011.3
20260503041959 12 329 1.6 6.4 0.00 0.00 0.00 70 1011.2
20260503040458 12 342 1.6 4.8 0.00 0.00 0.00 70 1011.3
20260503035958 12 304 1.6 9.7 0.00 0.00 0.00 71 1011.1
20260503035459 12 339 3.2 9.7 0.00 0.00 0.00 71 1011.2
20260503034959 12 11 1.6 9.7 0.00 0.00 0.00 71 1011.1
20260503034459 12 329 1.6 9.7 0.00 0.00 0.00 71 1011.1
20260503034000 12 7 1.6 11.3 0.00 0.00 0.00 71 1011.1
20260503033459 12 323 3.2 12.9 0.00 0.00 0.00 70 1011.0
20260503032459 12 295 1.6 11.3 0.00 0.00 0.00 70 1011.1
20260503031504 12 29 1.6 9.7 0.00 0.00 0.00 69 1011.1
20260503031004 12 348 1.6 8.0 0.00 0.00 0.00 69 1011.0
20260503030504 12 331 1.6 9.7 0.00 0.00 0.00 69 1010.8
20260503030003 12 360 1.6 9.7 0.00 0.00 0.00 69 1010.8
20260503025502 12 321 1.6 9.7 0.00 0.00 0.00 69 1010.8
20260503025002 13 305 1.6 8.0 0.00 0.00 0.00 69 1010.8
20260503024503 13 304 1.6 8.0 0.00 0.00 0.00 68 1010.7
20260503024003 13 333 1.6 8.0 0.00 0.00 0.00 68 1010.6
20260503023502 13 11 1.6 9.7 0.00 0.00 0.00 68 1010.5
20260503023002 13 269 1.6 9.7 0.00 0.00 0.00 67 1010.6
20260503022502 13 290 1.6 9.7 0.00 0.00 0.00 67 1010.5
20260503022003 13 279 1.6 8.0 0.00 0.00 0.00 66 1010.6
20260503021003 13 318 3.2 12.9 0.00 0.00 0.00 66 1010.5
20260503020503 14 297 3.2 17.7 0.00 0.00 0.00 65 1010.5
20260503020003 14 245 3.2 17.7 0.00 0.00 0.00 64 1010.5
20260503015504 15 278 3.2 12.9 0.00 0.00 0.00 63 1010.6
20260503015003 15 306 3.2 8.0 0.00 0.00 0.00 62 1010.6
20260503014004 15 279 3.2 11.3 0.00 0.00 0.00 61 1010.6
20260503013503 16 248 3.2 11.3 0.00 0.00 0.00 60 1010.6
20260503013003 16 329 3.2 9.7 0.00 0.00 0.00 59 1010.4
20260503011503 17 216 1.6 9.7 0.00 0.00 0.00 56 1010.6
20260503011003 17 305 3.2 9.7 0.00 0.00 0.00 57 1010.5
20260503010502 17 253 1.6 9.7 0.00 0.00 0.00 55 1010.6
20260503010006 17 213 1.6 8.0 0.00 0.00 0.00 56 1010.6
20260503005003 17 257 3.2 11.3 0.00 0.00 0.00 55 1010.6
20260503004504 18 214 3.2 9.7 0.00 0.00 0.00 55 1010.6
20260503004004 18 209 3.2 9.7 0.00 0.00 0.00 55 1010.6
20260503003005 18 255 3.2 11.3 0.00 0.00 0.00 54 1010.6
20260503002504 18 291 3.2 11.3 0.00 0.00 0.00 55 1010.6
20260503002004 18 301 3.2 11.3 0.00 0.00 0.00 54 1010.6
20260503001504 18 217 3.2 8.0 0.00 0.00 0.00 53 1010.6
20260503001004 18 258 1.6 8.0 0.00 0.00 0.00 54 1010.6
20260503000504 18 204 3.2 8.0 0.00 0.00 0.00 54 1010.5
20260503000004 18 278 1.6 8.0 0.00 0.00 0.00 53 1010.5
20260502235004 18 165 3.2 8.0 0.00 0.00 0.00 54 1010.6
20260502234504 18 131 3.2 8.0 0.00 0.00 0.00 54 1010.5
20260502234004 19 135 1.6 11.3 0.00 0.00 0.00 55 1010.5
20260502233503 19 343 1.6 8.0 0.00 0.00 0.00 54 1010.6
20260502233003 18 333 1.6 11.3 0.00 0.00 0.00 55 1010.8
20260502232503 18 129 3.2 11.3 0.00 0.00 0.00 55 1010.8
20260502232002 18 281 3.2 9.7 0.00 0.00 0.00 55 1010.9
20260502231502 18 143 3.2 11.3 0.00 0.00 0.00 55 1011.1
20260502231003 19 243 3.2 11.3 0.00 0.00 0.00 54 1011.0
20260502230005 20 243 3.2 8.0 0.00 0.00 0.00 54 1011.1
20260502225503 19 238 1.6 12.9 0.00 0.00 0.00 53 1011.1
20260502225002 19 259 1.6 9.7 0.00 0.00 0.00 55 1011.2
20260502224504 18 101 3.2 8.0 0.00 0.00 0.00 54 1011.3
20260502223502 19 134 4.8 12.9 0.00 0.00 0.00 53 1011.5
20260502223002 19 130 3.2 11.3 0.00 0.00 0.00 53 1011.6
20260502222503 19 128 1.6 8.0 0.00 0.00 0.00 54 1011.6
20260502222003 19 251 1.6 8.0 0.00 0.00 0.00 53 1011.7
20260502221002 19 169 1.6 6.4 0.00 0.00 0.00 55 1012.0
20260502220503 19 217 1.6 8.0 0.00 0.00 0.00 55 1012.0
20260502220003 18 259 3.2 6.4 0.00 0.00 0.00 57 1012.0
20260502215503 19 132 1.6 8.0 0.00 0.00 0.00 55 1012.2
20260502215003 19 245 1.6 8.0 0.00 0.00 0.00 56 1012.3
20260502214503 18 152 1.6 6.4 0.00 0.00 0.00 59 1012.4
20260502214004 18 266 1.6 4.8 0.00 0.00 0.00 58 1012.5
20260502213503 18 196 1.6 4.8 0.00 0.00 0.00 59 1012.6
20260502213002 17 210 1.6 8.0 0.00 0.00 0.00 60 1012.7
20260502212502 17 98 1.6 8.0 0.00 0.00 0.00 60 1012.9